Change the Weather History Date:

Sunday, December 8, 2013

  Actual Average Record
Temperature  
Mean Temperature 56 °F -  
Max Temperature 62 °F 62 °F 75 °F (2001)
Min Temperature 51 °F 47 °F 39 °F (1998)
Degree Days  
Heating Degree Days 8    
Growing Degree Days 6 (Base 50)    
Moisture  
Dew Point 37 °F    
Average Humidity 47    
Maximum Humidity 59    
Minimum Humidity 38    
Precipitation  
Precipitation 0.00 in - - ()
Sea Level Pressure  
Sea Level Pressure 30.15 in    
Wind  
Wind Speed 10 mph (WSW)    
Max Wind Speed 14 mph    
Max Gust Speed -    
Visibility 10 miles    
Events      
Averages and records for this station are not official NWS values.
T = Trace of Precipitation, MM = Missing Value Source: NWS Daily Summary

Daily Weather History Graph

Daily Weather History Graph

Search for Another Location

Airport or City:

Trip Planner

Search our weather history database for the weather conditions in past years. The results will help you decide how hot, cold, wet, or windy it might be!

Date:

Astronomy

Dec. 08, 2013 Rise Set
Actual Time 6:38 AM PST 4:42 PM PST
Civil Twilight 6:11 AM PST 5:09 PM PST
Nautical Twilight 5:41 AM PST 5:40 PM PST
Astronomical Twilight 5:11 AM PST 6:10 PM PST
Moon 11:17 AM PST (12/8) 11:20 PM PST (12/8)
Length of Visible Light 10h 58m
Length of Day
10h 03m
Waxing Crescent, 41% of the Moon is Illuminated
Dec 8
Waxing Crescent
Dec 9
First Quarter
Dec 17
Full
Dec 25
Last Quarter
Jan 1
New

Hourly Weather History & Observations

Time (PST) Temp. Dew Point Humidity Pressure Visibility Wind Dir Wind Speed Gust Speed Precip Events Conditions
12:52 AM 57.0 °F 37.9 °F 49% 30.13 in 10.0 mi West 12.7 mph - N/A   Mostly Cloudy
1:52 AM 57.0 °F 37.9 °F 49% 30.14 in 10.0 mi West 6.9 mph - N/A   Mostly Cloudy
2:52 AM 57.0 °F 37.9 °F 49% 30.14 in 10.0 mi West 13.8 mph - N/A   Mostly Cloudy
3:52 AM 55.9 °F 37.9 °F 51% 30.14 in 10.0 mi West 11.5 mph - N/A   Mostly Cloudy
4:52 AM 55.0 °F 36.0 °F 49% 30.14 in 10.0 mi West 11.5 mph - N/A   Scattered Clouds
5:52 AM 55.9 °F 36.0 °F 47% 30.16 in 10.0 mi West 11.5 mph - N/A   Mostly Cloudy
6:52 AM 55.9 °F 36.0 °F 47% 30.16 in 10.0 mi West 8.1 mph - N/A   Mostly Cloudy
7:52 AM 57.9 °F 37.0 °F 46% 30.18 in 10.0 mi West 11.5 mph - N/A   Mostly Cloudy
8:52 AM 57.9 °F 36.0 °F 44% 30.19 in 10.0 mi WSW 11.5 mph - N/A   Mostly Cloudy
9:52 AM 59.0 °F 37.0 °F 44% 30.20 in 10.0 mi West 9.2 mph - N/A   Mostly Cloudy
10:52 AM 62.1 °F 37.0 °F 39% 30.19 in 10.0 mi WSW 10.4 mph - N/A   Mostly Cloudy
11:52 AM 61.0 °F 35.1 °F 38% 30.17 in 10.0 mi WNW 5.8 mph - N/A   Mostly Cloudy
12:52 PM 62.1 °F 36.0 °F 38% 30.13 in 10.0 mi SSW 8.1 mph - N/A   Mostly Cloudy
1:52 PM 61.0 °F 37.0 °F 41% 30.12 in 10.0 mi SW 9.2 mph - N/A   Mostly Cloudy
2:52 PM 60.1 °F 37.0 °F 42% 30.13 in 10.0 mi SW 8.1 mph - N/A   Mostly Cloudy
3:52 PM 59.0 °F 34.0 °F 39% 30.12 in 10.0 mi West 6.9 mph - N/A   Mostly Cloudy
4:52 PM 57.0 °F 37.0 °F 47% 30.13 in 10.0 mi SSW 5.8 mph - N/A   Mostly Cloudy
5:52 PM 57.0 °F 37.9 °F 49% 30.12 in 10.0 mi SE 5.8 mph - N/A   Mostly Cloudy
6:52 PM 57.0 °F 37.0 °F 47% 30.13 in 10.0 mi SW 4.6 mph - N/A   Mostly Cloudy
7:52 PM 55.9 °F 39.0 °F 53% 30.15 in 10.0 mi ESE 6.9 mph - N/A   Mostly Cloudy
8:52 PM 55.0 °F 37.9 °F 53% 30.16 in 10.0 mi East 5.8 mph - N/A   Mostly Cloudy
9:52 PM 53.1 °F 39.0 °F 59% 30.17 in 10.0 mi East 5.8 mph - N/A   Scattered Clouds
10:52 PM 51.1 °F 37.0 °F 59% 30.18 in 9.0 mi East 6.9 mph - N/A   Scattered Clouds
11:52 PM 53.1 °F 37.9 °F 57% 30.18 in 10.0 mi NNE 3.5 mph - N/A   Partly Cloudy